Location: Newark
(56.0692°N, 115.8617°E)
Time: 11:59:09
(UTC+00:00)

Vanguard 2 Rocket - Pass Details

Date: 26 May 2020
Orbit: 556 x 3325 km, 32.9° (Epoch: 14 July)

Event Time Altitude Azimuth Distance (km) Brightness Sun altitude
Rises 07:39:42 0° 197° (SSW) 4,636 11.0 38.6°
Reaches altitude 10° 07:44:02 10° 178° (S) 4,142 10.6 38.1°
Maximum altitude 07:50:30 17° 144° (SE) 4,261 10.3 37.2°
Drops below altitude 10° 07:58:43 10° 112° (ESE) 5,494 10.6 36.1°
Sets 08:06:05 0° 96° (E) 6,961 10.9 35.1°
